contact:dominique.lefevre@mio.osupytheas.fr, maurice.libes@osupytheas.fr, didier.mallarino@osupytheas.fr
Project:EMSO http://www.emso-fr.org/EMSO-France
Depth: 2436.0 m
Title:EMSO Ligure Ouest : Data MII capteur AQUADOPP
Date,Latitude,Longitude,X_East,Y_North,Z_Up,Amplitude_X,Amplitude_Y,Amplitude_Z,Batterie,SoundSpeed,Heading,Pitch,Roll,Pressure,TIS,Speed,Direction
, degrees North, degrees East, m.s-1, m.s-1,m.s-1, 1, 1, 1, Volt, m.s-1, degree, degree, degree, dbar, degree_C, m.s-1, degree
2021-07-16T00:04:03,42.805,6.029,0.001,0.0,0.008,101.0,101.0,102.0,13.4,1505.2,330.6,-0.7,1.9,2470.634,13.29,0.001,90.0
2021-07-16T00:07:03,42.805,6.029,-0.024,-0.009,-0.006,101.0,104.0,101.0,13.4,1505.2,326.0,-0.8,1.8,2470.613,13.29,0.025,249.4
2021-07-16T00:10:03,42.805,6.029,-0.008,-0.038,-0.05,101.0,101.0,100.0,13.4,1505.2,328.6,-0.8,1.8,2470.595,13.29,0.038,191.9
2021-07-16T00:13:03,42.805,6.029,-0.005,0.026,0.004,102.0,102.0,102.0,13.3,1505.2,325.4,-0.8,1.8,2470.584,13.29,0.026,349.1
2021-07-16T00:16:03,42.805,6.029,0.011,0.002,0.012,101.0,101.0,101.0,13.4,1505.2,328.4,-0.8,1.8,2470.608,13.29,0.011,79.7
2021-07-16T00:19:03,42.805,6.029,-0.002,-0.007,0.003,101.0,102.0,101.0,13.4,1505.2,327.9,-0.8,1.8,2470.624,13.29,0.007,195.9
2021-07-16T00:22:03,42.805,6.029,-0.016,0.002,-0.006,102.0,101.0,101.0,13.4,1505.2,326.5,-0.8,1.8,2470.59,13.29,0.016,277.1
2021-07-16T00:25:03,42.805,6.029,0.013,-0.013,0.0,102.0,102.0,101.0,13.3,1505.2,329.1,-0.7,1.9,2470.601,13.29,0.018,135.0
2021-07-16T00:28:03,42.805,6.029,-0.008,-0.02,-0.005,102.0,103.0,101.0,13.4,1505.2,329.3,-0.7,1.8,2470.633,13.29,0.021,201.8
2021-07-16T00:31:03,42.805,6.029,0.0,0.0,-0.011,103.0,101.0,100.0,13.4,1505.2,326.7,-0.8,1.8,2470.596,13.29,0.0,0.0
2021-07-16T00:34:03,42.805,6.029,-0.001,-0.028,0.004,102.0,103.0,100.0,13.3,1505.2,324.9,-0.8,1.8,2470.589,13.29,0.028,182.0
2021-07-16T00:37:03,42.805,6.029,-0.001,-0.019,-0.027,103.0,102.0,101.0,13.4,1505.2,326.3,-0.7,1.8,2470.613,13.29,0.019,183.0
2021-07-16T00:40:03,42.805,6.029,-0.009,-0.018,-0.007,102.0,103.0,101.0,13.3,1505.2,324.9,-0.8,1.8,2470.585,13.29,0.02,206.6
2021-07-16T00:43:03,42.805,6.029,0.011,-0.013,0.004,100.0,103.0,101.0,13.4,1505.2,325.6,-0.7,1.8,2470.623,13.29,0.017,139.8
2021-07-16T00:46:03,42.805,6.029,-0.035,-0.007,-0.01,102.0,102.0,101.0,13.4,1505.2,330.3,-0.7,1.8,2470.593,13.29,0.035,258.7
2021-07-16T00:49:03,42.805,6.029,-0.012,-0.02,-0.041,101.0,101.0,101.0,13.4,1505.2,327.1,-0.8,1.8,2470.575,13.29,0.023,211.0
2021-07-16T00:52:03,42.805,6.029,0.003,-0.025,-0.027,101.0,103.0,101.0,13.4,1505.2,325.7,-0.7,1.8,2470.615,13.29,0.025,173.2
2021-07-16T00:55:03,42.805,6.029,0.0,0.006,-0.015,103.0,102.0,100.0,13.4,1505.2,327.6,-0.7,1.8,2470.59,13.29,0.006,0.0
2021-07-16T00:58:03,42.805,6.029,-0.012,-0.021,-0.003,102.0,103.0,100.0,13.3,1505.2,327.2,-0.8,1.8,2470.596,13.29,0.024,209.7
2021-07-16T01:04:03,42.805,6.029,0.0,-0.014,-0.047,102.0,102.0,100.0,13.4,1505.2,329.4,-0.8,1.8,2470.585,13.28,0.014,180.0
2021-07-16T01:07:03,42.805,6.029,-0.031,0.0,0.007,101.0,102.0,101.0,13.3,1505.2,327.6,-0.7,1.9,2470.646,13.28,0.03,270.0
2021-07-16T01:10:03,42.805,6.029,-0.004,-0.025,-0.038,102.0,103.0,99.0,13.4,1505.2,327.5,-0.7,1.8,2470.595,13.29,0.025,189.1
2021-07-16T01:13:03,42.805,6.029,0.005,0.0,0.007,102.0,101.0,100.0,13.4,1505.2,328.0,-0.7,1.8,2470.59,13.29,0.005,90.0
2021-07-16T01:16:03,42.805,6.029,-0.018,-0.004,-0.045,103.0,101.0,101.0,13.3,1505.2,326.8,-0.8,1.9,2470.597,13.29,0.018,257.5
2021-07-16T01:19:03,42.805,6.029,0.017,-0.007,0.002,102.0,102.0,100.0,13.4,1505.2,327.9,-0.7,1.8,2470.616,13.29,0.018,112.4
2021-07-16T01:22:03,42.805,6.029,-0.015,0.006,-0.034,103.0,102.0,101.0,13.4,1505.2,329.1,-0.7,1.8,2470.56,13.29,0.016,291.8
2021-07-16T01:25:03,42.805,6.029,-0.026,0.011,-0.021,101.0,102.0,100.0,13.4,1505.2,327.3,-0.7,1.8,2470.567,13.29,0.028,292.9
2021-07-16T01:28:03,42.805,6.029,-0.008,-0.007,-0.023,102.0,103.0,101.0,13.4,1505.2,327.1,-0.8,1.8,2470.545,13.29,0.01,228.8
2021-07-16T01:31:03,42.805,6.029,-0.017,-0.026,-0.034,102.0,103.0,101.0,13.4,1505.2,328.5,-0.8,1.9,2470.558,13.29,0.031,213.2
2021-07-16T01:34:03,42.805,6.029,-0.027,0.001,-0.021,102.0,101.0,101.0,13.4,1505.2,325.8,-0.7,1.8,2470.536,13.29,0.027,272.1
2021-07-16T01:37:03,42.805,6.029,-0.018,-0.014,-0.019,101.0,102.0,101.0,13.3,1505.2,330.4,-0.8,1.8,2470.553,13.29,0.022,232.1
2021-07-16T01:40:03,42.805,6.029,-0.006,0.001,-0.033,102.0,101.0,101.0,13.4,1505.2,327.7,-0.8,1.8,2470.564,13.29,0.006,279.5
2021-07-16T01:43:03,42.805,6.029,0.001,0.004,0.015,102.0,102.0,100.0,13.3,1505.2,328.7,-0.7,1.8,2470.566,13.29,0.004,14.0
2021-07-16T01:46:03,42.805,6.029,-0.019,-0.014,-0.049,103.0,101.0,100.0,13.3,1505.2,327.2,-0.8,1.9,2470.585,13.29,0.023,233.6
2021-07-16T01:49:03,42.805,6.029,-0.033,0.001,0.012,104.0,104.0,101.0,13.3,1505.2,328.7,-0.7,1.8,2470.547,13.29,0.033,271.7
2021-07-16T01:52:03,42.805,6.029,-0.017,-0.019,0.0,104.0,101.0,99.0,13.4,1505.2,325.9,-0.7,1.8,2470.546,13.29,0.025,221.8
2021-07-16T01:55:03,42.805,6.029,0.007,0.008,0.013,103.0,101.0,100.0,13.4,1505.2,326.3,-0.8,1.8,2470.547,13.29,0.01,41.2
2021-07-16T01:58:03,42.805,6.029,0.012,-0.005,-0.006,101.0,103.0,99.0,13.4,1505.2,325.5,-0.8,1.8,2470.567,13.29,0.013,112.6
2021-07-16T02:04:03,42.805,6.029,-0.005,-0.015,-0.012,101.0,101.0,100.0,13.4,1505.2,327.5,-0.8,1.8,2470.54,13.29,0.015,198.4
2021-07-16T02:07:03,42.805,6.029,0.0,0.006,0.01,102.0,102.0,100.0,13.4,1505.2,330.3,-0.8,1.8,2470.582,13.29,0.006,0.0
2021-07-16T02:10:03,42.805,6.029,-0.014,-0.009,0.002,102.0,103.0,101.0,13.4,1505.2,326.6,-0.8,1.8,2470.588,13.29,0.016,237.3
2021-07-16T02:13:03,42.805,6.029,-0.037,0.001,-0.02,102.0,103.0,100.0,13.3,1505.2,326.4,-0.7,1.8,2470.547,13.29,0.037,271.5
2021-07-16T02:16:03,42.805,6.029,-0.009,0.017,-0.02,103.0,103.0,99.0,13.4,1505.2,327.4,-0.8,1.8,2470.564,13.29,0.019,332.1
2021-07-16T02:19:03,42.805,6.029,-0.013,-0.019,-0.04,101.0,102.0,100.0,13.4,1505.2,328.3,-0.7,1.8,2470.566,13.29,0.023,214.4
2021-07-16T02:22:03,42.805,6.029,-0.014,0.014,-0.018,102.0,102.0,101.0,13.4,1505.2,328.9,-0.8,1.8,2470.558,13.29,0.019,315.0
2021-07-16T02:25:03,42.805,6.029,-0.034,-0.011,-0.017,102.0,101.0,101.0,13.4,1505.2,330.1,-0.7,1.8,2470.552,13.29,0.035,252.1
2021-07-16T02:28:03,42.805,6.029,-0.016,-0.025,-0.044,103.0,102.0,100.0,13.3,1505.2,325.3,-0.7,1.8,2470.595,13.29,0.029,212.6
2021-07-16T02:31:03,42.805,6.029,-0.005,0.013,-0.011,101.0,102.0,100.0,13.3,1505.2,328.5,-0.7,1.8,2470.535,13.29,0.013,339.0
2021-07-16T02:34:03,42.805,6.029,-0.025,-0.003,-0.014,102.0,103.0,101.0,13.4,1505.2,327.6,-0.7,1.8,2470.549,13.29,0.025,263.2
2021-07-16T02:37:03,42.805,6.029,-0.011,-0.016,-0.007,103.0,104.0,99.0,13.4,1505.2,327.7,-0.7,1.8,2470.52,13.29,0.019,214.5
2021-07-16T02:40:03,42.805,6.029,-0.004,0.004,-0.008,102.0,101.0,101.0,13.4,1505.2,325.2,-0.8,1.9,2470.501,13.29,0.005,315.0
2021-07-16T02:43:03,42.805,6.029,-0.004,-0.01,-0.005,102.0,101.0,101.0,13.3,1505.2,324.8,-0.7,1.8,2470.518,13.29,0.01,201.8
2021-07-16T02:46:03,42.805,6.029,-0.027,0.01,-0.005,101.0,104.0,100.0,13.4,1505.2,326.6,-0.7,1.8,2470.559,13.29,0.028,290.3
2021-07-16T02:49:03,42.805,6.029,-0.026,-0.011,-0.05,101.0,103.0,100.0,13.4,1505.2,328.2,-0.7,1.8,2470.556,13.29,0.028,247.1
2021-07-16T02:52:03,42.805,6.029,-0.003,0.005,-0.007,100.0,101.0,101.0,13.3,1505.2,329.0,-0.7,1.8,2470.498,13.29,0.005,329.0
2021-07-16T02:55:03,42.805,6.029,-0.002,0.001,0.003,100.0,103.0,102.0,13.4,1505.2,326.6,-0.7,1.8,2470.515,13.29,0.002,296.6
2021-07-16T02:58:03,42.805,6.029,-0.042,0.013,-0.009,103.0,102.0,100.0,13.4,1505.2,328.6,-0.7,1.8,2470.509,13.29,0.043,287.2
2021-07-16T03:04:03,42.805,6.029,-0.031,0.01,0.005,103.0,103.0,100.0,13.4,1505.2,326.4,-0.7,1.8,2470.543,13.28,0.032,287.9
2021-07-16T03:07:03,42.805,6.029,-0.015,0.002,0.007,102.0,102.0,101.0,13.4,1505.2,325.2,-0.8,1.9,2470.55,13.28,0.015,277.6
2021-07-16T03:10:03,42.805,6.029,-0.029,-0.024,-0.048,104.0,103.0,100.0,13.4,1505.2,326.3,-0.7,1.8,2470.556,13.28,0.037,230.4
2021-07-16T03:13:03,42.805,6.029,-0.006,0.003,0.012,103.0,102.0,102.0,13.4,1505.2,324.6,-0.8,1.8,2470.518,13.29,0.006,296.6
2021-07-16T03:16:03,42.805,6.029,0.0,-0.004,-0.01,103.0,101.0,100.0,13.4,1505.2,326.9,-0.7,1.8,2470.523,13.29,0.004,180.0
2021-07-16T03:19:03,42.805,6.029,-0.012,-0.009,-0.01,102.0,102.0,100.0,13.3,1505.2,328.3,-0.7,1.8,2470.529,13.29,0.015,233.1
2021-07-16T03:22:03,42.805,6.029,-0.014,0.0,-0.003,101.0,103.0,101.0,13.4,1505.2,326.3,-0.7,1.8,2470.517,13.29,0.014,270.0
2021-07-16T03:25:03,42.805,6.029,-0.016,0.009,-0.003,102.0,104.0,100.0,13.4,1505.2,328.8,-0.8,1.8,2470.492,13.29,0.018,299.4
2021-07-16T03:28:03,42.805,6.029,-0.005,0.011,-0.007,102.0,101.0,101.0,13.4,1505.2,327.7,-0.7,1.8,2470.529,13.29,0.012,335.6
2021-07-16T03:31:03,42.805,6.029,-0.011,0.004,0.003,102.0,101.0,101.0,13.4,1505.2,329.4,-0.8,1.8,2470.525,13.29,0.011,290.0
2021-07-16T03:34:03,42.805,6.029,0.011,0.008,-0.009,103.0,102.0,100.0,13.4,1505.2,329.3,-0.7,1.8,2470.491,13.29,0.013,54.0
2021-07-16T03:37:03,42.805,6.029,-0.021,-0.002,0.007,102.0,102.0,100.0,13.4,1505.2,325.9,-0.7,1.8,2470.53,13.29,0.021,264.6
2021-07-16T03:40:03,42.805,6.029,-0.016,0.014,-0.014,102.0,102.0,101.0,13.4,1505.2,329.9,-0.7,1.8,2470.497,13.29,0.021,311.2
2021-07-16T03:43:03,42.805,6.029,-0.017,0.02,-0.001,103.0,101.0,101.0,13.4,1505.2,330.2,-0.7,1.8,2470.519,13.29,0.026,319.6
2021-07-16T03:46:03,42.805,6.029,-0.019,0.001,0.015,102.0,103.0,101.0,13.4,1505.2,329.0,-0.8,1.8,2470.488,13.29,0.019,273.0
2021-07-16T03:49:03,42.805,6.029,-0.029,-0.01,-0.015,102.0,102.0,100.0,13.4,1505.2,330.3,-0.8,1.9,2470.484,13.29,0.03,251.0
2021-07-16T03:52:03,42.805,6.029,-0.033,0.0,-0.003,102.0,102.0,100.0,13.4,1505.2,325.0,-0.8,1.8,2470.472,13.29,0.033,270.0
2021-07-16T03:55:03,42.805,6.029,-0.021,0.013,-0.022,102.0,105.0,100.0,13.4,1505.2,326.1,-0.7,1.8,2470.483,13.29,0.024,301.8
2021-07-16T03:58:03,42.805,6.029,-0.022,0.0,0.01,103.0,102.0,101.0,13.4,1505.2,328.7,-0.7,1.8,2470.472,13.29,0.022,270.0
2021-07-16T04:04:03,42.805,6.029,-0.02,-0.01,-0.016,102.0,101.0,100.0,13.3,1505.2,329.9,-0.7,1.8,2470.566,13.28,0.022,243.4
2021-07-16T04:07:03,42.805,6.029,0.008,-0.013,-0.018,101.0,102.0,101.0,13.4,1505.2,330.1,-0.7,1.8,2470.511,13.28,0.015,148.4
2021-07-16T04:10:03,42.805,6.029,-0.033,-0.014,-0.022,102.0,102.0,101.0,13.4,1505.2,328.2,-0.8,1.9,2470.539,13.28,0.035,247.0
2021-07-16T04:13:03,42.805,6.029,-0.016,-0.015,-0.009,103.0,102.0,99.0,13.3,1505.2,329.3,-0.7,1.8,2470.491,13.29,0.021,226.9
2021-07-16T04:16:03,42.805,6.029,-0.01,0.011,0.012,102.0,101.0,101.0,13.4,1505.2,329.8,-0.8,1.8,2470.487,13.29,0.014,317.7
2021-07-16T04:19:03,42.805,6.029,-0.027,-0.016,-0.015,101.0,102.0,100.0,13.4,1505.2,325.2,-0.8,1.8,2470.475,13.29,0.031,239.3
2021-07-16T04:22:03,42.805,6.029,-0.016,-0.001,-0.014,105.0,102.0,100.0,13.4,1505.2,328.7,-0.8,1.8,2470.521,13.29,0.016,266.4
2021-07-16T04:25:03,42.805,6.029,-0.019,-0.004,0.035,102.0,101.0,100.0,13.4,1505.2,329.9,-0.8,1.8,2470.475,13.29,0.019,258.1
2021-07-16T04:28:03,42.805,6.029,-0.017,0.009,-0.026,102.0,102.0,100.0,13.3,1505.2,326.2,-0.8,1.8,2470.457,13.29,0.019,297.9
2021-07-16T04:31:03,42.805,6.029,-0.029,-0.001,-0.015,101.0,101.0,101.0,13.3,1505.2,326.7,-0.7,1.8,2470.535,13.29,0.029,268.0
2021-07-16T04:34:03,42.805,6.029,-0.015,-0.017,-0.023,102.0,102.0,100.0,13.4,1505.2,329.4,-0.8,1.8,2470.528,13.29,0.022,221.4
2021-07-16T04:37:03,42.805,6.029,-0.002,-0.013,-0.015,102.0,102.0,100.0,13.4,1505.2,328.6,-0.7,1.8,2470.504,13.29,0.013,188.7
2021-07-16T04:40:03,42.805,6.029,-0.012,0.001,0.013,102.0,103.0,102.0,13.3,1505.2,327.4,-0.7,1.8,2470.438,13.29,0.012,274.8
2021-07-16T04:43:03,42.805,6.029,-0.024,0.0,-0.03,102.0,103.0,101.0,13.4,1505.2,328.1,-0.7,1.8,2470.482,13.29,0.024,270.0
2021-07-16T04:46:03,42.805,6.029,-0.015,-0.001,-0.013,102.0,102.0,100.0,13.4,1505.2,328.7,-0.7,1.8,2470.424,13.29,0.015,266.2
2021-07-16T04:49:03,42.805,6.029,-0.02,0.017,0.017,102.0,101.0,102.0,13.4,1505.2,326.5,-0.8,1.8,2470.46,13.29,0.026,310.4
2021-07-16T04:52:03,42.805,6.029,-0.017,-0.009,-0.038,103.0,101.0,99.0,13.3,1505.2,326.4,-0.8,1.8,2470.458,13.29,0.019,242.1
2021-07-16T04:55:03,42.805,6.029,-0.019,-0.007,-0.011,103.0,101.0,101.0,13.4,1505.2,326.0,-0.8,1.8,2470.49,13.29,0.02,249.8
2021-07-16T04:58:03,42.805,6.029,-0.02,0.013,-0.016,102.0,101.0,101.0,13.4,1505.2,328.1,-0.7,1.8,2470.423,13.29,0.023,303.0
2021-07-16T05:04:03,42.805,6.029,-0.012,-0.004,-0.033,105.0,102.0,100.0,13.4,1505.2,330.2,-0.8,1.9,2470.488,13.28,0.012,251.6
2021-07-16T05:07:03,42.805,6.029,-0.02,-0.007,-0.026,102.0,101.0,100.0,13.4,1505.2,326.6,-0.7,1.8,2470.515,13.29,0.021,250.7
2021-07-16T05:10:03,42.805,6.029,-0.014,0.014,-0.035,102.0,101.0,100.0,13.4,1505.2,326.0,-0.8,1.8,2470.477,13.29,0.019,315.0
2021-07-16T05:13:03,42.805,6.029,-0.035,0.01,-0.033,101.0,102.0,100.0,13.4,1505.2,330.0,-0.8,1.8,2470.457,13.29,0.036,285.9
2021-07-16T05:16:03,42.805,6.029,-0.001,-0.001,-0.021,102.0,102.0,100.0,13.4,1505.2,325.0,-0.8,1.8,2470.448,13.29,0.001,225.0
2021-07-16T05:19:03,42.805,6.029,-0.013,0.004,-0.012,102.0,101.0,100.0,13.4,1505.2,326.0,-0.7,1.8,2470.474,13.29,0.013,287.1
2021-07-16T05:22:03,42.805,6.029,-0.002,0.021,0.008,102.0,99.0,101.0,13.4,1505.2,329.0,-0.8,1.8,2470.461,13.29,0.021,354.6
2021-07-16T05:25:03,42.805,6.029,-0.005,-0.006,-0.022,103.0,100.0,101.0,13.4,1505.2,330.1,-0.8,1.8,2470.458,13.29,0.007,219.8
2021-07-16T05:28:03,42.805,6.029,-0.011,0.007,-0.014,103.0,102.0,101.0,13.3,1505.2,327.8,-0.7,1.8,2470.462,13.29,0.013,302.5
2021-07-16T05:31:03,42.805,6.029,0.0,0.012,-0.013,102.0,102.0,101.0,13.4,1505.2,326.9,-0.8,1.8,2470.435,13.29,0.012,0.0
2021-07-16T05:34:03,42.805,6.029,0.003,0.005,-0.002,102.0,103.0,101.0,13.4,1505.2,327.1,-0.7,1.8,2470.414,13.29,0.005,31.0
2021-07-16T05:37:03,42.805,6.029,0.011,0.011,0.001,102.0,102.0,100.0,13.3,1505.2,327.8,-0.7,1.8,2470.434,13.29,0.015,45.0
2021-07-16T05:40:03,42.805,6.029,-0.004,-0.009,-0.008,102.0,102.0,101.0,13.4,1505.2,324.7,-0.8,1.8,2470.415,13.29,0.009,204.0
2021-07-16T05:43:03,42.805,6.029,-0.01,0.003,0.006,104.0,101.0,101.0,13.3,1505.2,328.7,-0.8,1.8,2470.436,13.29,0.01,286.7
2021-07-16T05:46:03,42.805,6.029,-0.001,-0.005,-0.002,101.0,101.0,101.0,13.3,1505.2,326.3,-0.8,1.8,2470.435,13.29,0.005,191.3
2021-07-16T05:49:03,42.805,6.029,-0.021,-0.015,-0.016,101.0,101.0,101.0,13.4,1505.2,328.8,-0.8,1.8,2470.416,13.29,0.025,234.5
2021-07-16T05:52:03,42.805,6.029,-0.011,0.027,0.014,103.0,103.0,101.0,13.3,1505.2,329.3,-0.7,1.9,2470.435,13.29,0.029,337.8
2021-07-16T05:55:03,42.805,6.029,-0.026,0.009,0.002,104.0,103.0,100.0,13.4,1505.2,329.6,-0.7,1.8,2470.444,13.29,0.027,289.1
2021-07-16T05:58:03,42.805,6.029,-0.001,-0.006,-0.04,103.0,103.0,101.0,13.4,1505.2,328.8,-0.8,1.8,2470.392,13.29,0.006,189.5
2021-07-16T06:04:03,42.805,6.029,-0.017,0.0,-0.024,103.0,103.0,100.0,13.3,1505.2,327.2,-0.8,1.8,2470.45,13.29,0.017,270.0
2021-07-16T06:07:03,42.805,6.029,-0.024,-0.011,-0.007,102.0,103.0,101.0,13.4,1505.2,327.3,-0.8,1.8,2470.478,13.29,0.026,245.4
2021-07-16T06:10:03,42.805,6.029,-0.005,-0.003,-0.013,101.0,104.0,100.0,13.4,1505.2,329.1,-0.8,1.8,2470.442,13.29,0.005,239.0
2021-07-16T06:13:03,42.805,6.029,-0.002,0.002,0.002,100.0,101.0,102.0,13.3,1505.2,326.6,-0.8,1.8,2470.49,13.29,0.002,315.0
2021-07-16T06:16:03,42.805,6.029,-0.013,-0.032,-0.044,101.0,102.0,102.0,13.4,1505.2,325.7,-0.8,1.8,2470.41,13.29,0.034,202.1
2021-07-16T06:19:03,42.805,6.029,-0.015,-0.008,-0.003,102.0,102.0,102.0,13.4,1505.2,327.2,-0.8,1.8,2470.493,13.29,0.017,241.9
2021-07-16T06:22:03,42.805,6.029,0.001,-0.017,0.023,102.0,103.0,100.0,13.4,1505.2,330.4,-0.8,1.7,2470.446,13.29,0.017,176.6
2021-07-16T06:25:03,42.805,6.029,0.0,0.0,0.022,102.0,102.0,101.0,13.4,1505.2,328.5,-0.8,1.8,2470.46,13.29,0.0,0.0
2021-07-16T06:28:03,42.805,6.029,-0.002,0.001,-0.003,102.0,103.0,102.0,13.3,1505.2,328.2,-0.8,1.9,2470.434,13.29,0.002,296.6
2021-07-16T06:31:03,42.805,6.029,-0.025,0.021,-0.003,104.0,102.0,101.0,13.4,1505.2,328.7,-0.8,1.8,2470.439,13.29,0.032,310.0
2021-07-16T06:34:03,42.805,6.029,-0.014,0.012,0.017,103.0,102.0,100.0,13.4,1505.2,326.3,-0.8,1.8,2470.413,13.29,0.018,310.6
2021-07-16T06:37:03,42.805,6.029,-0.01,-0.006,0.001,102.0,102.0,101.0,13.4,1505.2,327.7,-0.8,1.8,2470.45,13.29,0.011,239.0
2021-07-16T06:40:03,42.805,6.029,-0.008,-0.013,-0.001,101.0,102.0,100.0,13.4,1505.2,326.8,-0.7,1.8,2470.42,13.29,0.015,211.6
2021-07-16T06:43:03,42.805,6.029,-0.021,-0.005,-0.032,101.0,102.0,100.0,13.4,1505.2,327.7,-0.7,1.8,2470.416,13.29,0.021,256.6
2021-07-16T06:46:03,42.805,6.029,-0.003,-0.01,-0.003,103.0,101.0,100.0,13.4,1505.2,326.4,-0.8,1.8,2470.41,13.29,0.01,196.7
2021-07-16T06:49:03,42.805,6.029,0.007,-0.012,-0.005,102.0,102.0,100.0,13.4,1505.2,328.9,-0.7,1.8,2470.443,13.29,0.013,149.7
2021-07-16T06:52:03,42.805,6.029,-0.017,-0.002,-0.029,101.0,105.0,102.0,13.4,1505.2,325.9,-0.8,1.8,2470.416,13.29,0.017,263.3
2021-07-16T06:55:03,42.805,6.029,-0.017,-0.008,-0.04,100.0,103.0,102.0,13.3,1505.2,328.2,-0.8,1.8,2470.448,13.29,0.018,244.8
2021-07-16T06:58:03,42.805,6.029,-0.032,0.012,0.005,101.0,103.0,101.0,13.3,1505.2,328.8,-0.8,1.8,2470.451,13.29,0.034,290.6
2021-07-16T07:04:03,42.805,6.029,-0.016,0.003,-0.008,102.0,103.0,100.0,13.4,1505.2,326.7,-0.8,1.8,2470.494,13.29,0.016,280.6
2021-07-16T07:07:03,42.805,6.029,0.023,-0.02,-0.023,102.0,102.0,100.0,13.4,1505.2,325.6,-0.8,1.8,2470.464,13.29,0.03,131.0
2021-07-16T07:10:03,42.805,6.029,-0.002,-0.016,-0.055,102.0,102.0,100.0,13.4,1505.2,328.9,-0.7,1.8,2470.427,13.29,0.016,187.1
2021-07-16T07:13:03,42.805,6.029,-0.012,0.01,0.011,102.0,103.0,100.0,13.3,1505.2,330.0,-0.8,1.8,2470.498,13.29,0.015,309.8
2021-07-16T07:16:03,42.805,6.029,-0.002,-0.001,0.003,102.0,101.0,100.0,13.4,1505.2,327.0,-0.7,1.8,2470.405,13.29,0.002,243.4
2021-07-16T07:19:03,42.805,6.029,-0.016,-0.016,0.0,103.0,103.0,100.0,13.4,1505.2,326.1,-0.7,1.8,2470.463,13.29,0.022,225.0
2021-07-16T07:22:03,42.805,6.029,-0.013,-0.01,-0.013,100.0,102.0,101.0,13.3,1505.2,329.0,-0.7,1.8,2470.438,13.29,0.016,232.4
2021-07-16T07:25:03,42.805,6.029,-0.015,0.002,-0.007,103.0,100.0,100.0,13.4,1505.2,325.5,-0.8,1.8,2470.412,13.29,0.015,277.6
2021-07-16T07:28:03,42.805,6.029,0.007,-0.008,0.003,103.0,101.0,101.0,13.3,1505.2,330.1,-0.8,1.8,2470.424,13.29,0.01,138.8
2021-07-16T07:31:03,42.805,6.029,-0.01,0.002,-0.012,101.0,102.0,101.0,13.3,1505.2,324.8,-0.7,1.8,2470.426,13.29,0.01,281.3
2021-07-16T07:34:03,42.805,6.029,0.005,-0.005,-0.007,99.0,102.0,100.0,13.3,1505.2,327.2,-0.8,1.8,2470.433,13.29,0.007,135.0
2021-07-16T07:37:03,42.805,6.029,-0.006,0.001,-0.006,103.0,104.0,98.0,13.3,1505.2,329.5,-0.7,1.8,2470.436,13.29,0.006,279.5
2021-07-16T07:40:03,42.805,6.029,-0.005,0.017,0.014,101.0,104.0,101.0,13.4,1505.2,325.7,-0.8,1.8,2470.424,13.29,0.017,343.6
2021-07-16T07:43:03,42.805,6.029,-0.008,-0.01,-0.022,102.0,101.0,101.0,13.4,1505.2,326.3,-0.8,1.8,2470.438,13.29,0.012,218.7
2021-07-16T07:46:03,42.805,6.029,-0.026,0.003,-0.007,102.0,102.0,101.0,13.4,1505.2,328.4,-0.8,1.8,2470.46,13.29,0.026,276.6
2021-07-16T07:49:03,42.805,6.029,-0.012,0.02,0.015,102.0,101.0,100.0,13.4,1505.2,329.6,-0.8,1.8,2470.461,13.29,0.023,329.0
2021-07-16T07:52:03,42.805,6.029,-0.014,0.012,-0.011,102.0,101.0,100.0,13.4,1505.2,329.5,-0.7,1.8,2470.397,13.29,0.018,310.6
2021-07-16T07:55:03,42.805,6.029,-0.003,0.019,0.0,102.0,101.0,101.0,13.3,1505.2,326.3,-0.8,1.8,2470.418,13.29,0.019,351.0
2021-07-16T07:58:03,42.805,6.029,-0.011,-0.006,-0.024,100.0,102.0,103.0,13.4,1505.2,327.4,-0.7,1.8,2470.435,13.29,0.012,241.4
2021-07-16T08:04:03,42.805,6.029,-0.024,0.012,-0.002,101.0,101.0,100.0,13.4,1505.2,327.9,-0.8,1.8,2470.475,13.29,0.026,296.6
2021-07-16T08:07:03,42.805,6.029,-0.026,0.002,-0.021,102.0,102.0,101.0,13.3,1505.2,326.0,-0.7,1.8,2470.478,13.29,0.026,274.4
2021-07-16T08:10:03,42.805,6.029,0.01,0.007,-0.014,104.0,101.0,100.0,13.3,1505.2,329.9,-0.7,1.8,2470.438,13.29,0.012,55.0
2021-07-16T08:13:03,42.805,6.029,-0.001,0.001,0.015,100.0,102.0,101.0,13.3,1505.2,328.3,-0.8,1.9,2470.458,13.29,0.001,315.0
2021-07-16T08:16:03,42.805,6.029,0.008,0.0,-0.003,103.0,101.0,100.0,13.4,1505.2,326.3,-0.7,1.8,2470.456,13.29,0.008,90.0
2021-07-16T08:19:03,42.805,6.029,-0.004,-0.006,-0.021,102.0,101.0,101.0,13.4,1505.2,327.3,-0.8,1.8,2470.401,13.29,0.007,213.7
2021-07-16T08:22:03,42.805,6.029,0.007,-0.009,-0.031,101.0,102.0,101.0,13.4,1505.2,325.2,-0.7,1.8,2470.458,13.29,0.011,142.1
2021-07-16T08:25:03,42.805,6.029,0.014,0.006,-0.018,101.0,102.0,101.0,13.4,1505.2,326.3,-0.7,1.8,2470.432,13.29,0.015,66.8
2021-07-16T08:28:03,42.805,6.029,-0.006,0.001,0.001,102.0,100.0,100.0,13.3,1505.2,325.0,-0.8,1.8,2470.462,13.29,0.006,279.5
2021-07-16T08:31:03,42.805,6.029,-0.013,-0.016,-0.028,102.0,101.0,99.0,13.4,1505.2,327.5,-0.7,1.8,2470.466,13.29,0.02,219.1
2021-07-16T08:34:03,42.805,6.029,-0.001,-0.024,-0.015,102.0,100.0,100.0,13.4,1505.2,329.8,-0.7,1.8,2470.462,13.29,0.024,182.4
2021-07-16T08:37:03,42.805,6.029,-0.017,0.016,-0.024,101.0,102.0,102.0,13.4,1505.2,326.2,-0.7,1.8,2470.447,13.29,0.023,313.3
2021-07-16T08:40:03,42.805,6.029,-0.025,-0.005,0.002,101.0,102.0,101.0,13.4,1505.2,326.3,-0.8,1.8,2470.45,13.29,0.025,258.7
2021-07-16T08:43:03,42.805,6.029,-0.017,0.016,0.029,101.0,103.0,100.0,13.4,1505.2,327.9,-0.8,1.8,2470.446,13.29,0.023,313.3
2021-07-16T08:46:03,42.805,6.029,-0.012,0.017,-0.018,103.0,102.0,100.0,13.4,1505.2,328.0,-0.8,1.8,2470.454,13.29,0.02,324.8
2021-07-16T08:49:03,42.805,6.029,-0.038,0.004,-0.017,101.0,101.0,101.0,13.4,1505.2,326.7,-0.8,1.8,2470.484,13.29,0.038,276.0
2021-07-16T08:52:03,42.805,6.029,-0.01,-0.013,-0.009,102.0,101.0,101.0,13.4,1505.2,325.9,-0.8,1.8,2470.462,13.29,0.016,217.6
2021-07-16T08:55:03,42.805,6.029,-0.041,0.005,-0.037,101.0,101.0,101.0,13.4,1505.2,328.0,-0.8,1.8,2470.436,13.29,0.041,277.0
2021-07-16T08:58:03,42.805,6.029,-0.03,-0.02,-0.003,105.0,101.0,100.0,13.4,1505.2,327.1,-0.8,1.8,2470.451,13.29,0.036,236.3
2021-07-16T09:04:03,42.805,6.029,-0.008,0.0,-0.016,102.0,102.0,100.0,13.4,1505.2,328.6,-0.8,1.8,2470.524,13.29,0.008,270.0
2021-07-16T09:07:03,42.805,6.029,0.014,-0.033,-0.01,100.0,101.0,102.0,13.4,1505.2,330.2,-0.8,1.8,2470.463,13.29,0.035,157.0
2021-07-16T09:10:03,42.805,6.029,-0.002,-0.01,-0.002,101.0,102.0,101.0,13.4,1505.2,326.8,-0.8,1.8,2470.507,13.29,0.01,191.3
2021-07-16T09:13:03,42.805,6.029,0.005,0.001,-0.011,103.0,102.0,100.0,13.4,1505.2,330.5,-0.8,1.8,2470.502,13.29,0.005,78.7
2021-07-16T09:16:03,42.805,6.029,0.008,-0.002,-0.02,102.0,102.0,100.0,13.3,1505.2,327.6,-0.8,1.8,2470.468,13.29,0.008,104.0
2021-07-16T09:19:03,42.805,6.029,-0.009,-0.029,-0.007,102.0,101.0,101.0,13.4,1505.2,328.9,-0.8,1.9,2470.475,13.29,0.03,197.2
2021-07-16T09:22:03,42.805,6.029,-0.024,0.004,-0.021,102.0,103.0,101.0,13.4,1505.2,324.7,-0.7,1.8,2470.479,13.29,0.024,279.5
2021-07-16T09:25:03,42.805,6.029,0.016,-0.002,-0.001,102.0,103.0,100.0,13.4,1505.2,328.7,-0.7,1.8,2470.502,13.29,0.016,97.1
2021-07-16T09:28:03,42.805,6.029,0.01,-0.009,0.0,102.0,103.0,101.0,13.3,1505.2,329.9,-0.7,1.8,2470.484,13.29,0.013,132.0
2021-07-16T09:31:03,42.805,6.029,0.001,-0.002,-0.007,102.0,102.0,101.0,13.3,1505.2,325.3,-0.7,1.8,2470.473,13.29,0.002,153.4
2021-07-16T09:34:03,42.805,6.029,-0.003,-0.016,-0.026,101.0,102.0,101.0,13.4,1505.2,328.9,-0.7,1.8,2470.459,13.29,0.016,190.6
2021-07-16T09:37:03,42.805,6.029,-0.004,0.005,-0.003,105.0,102.0,100.0,13.4,1505.2,325.9,-0.7,1.8,2470.465,13.29,0.006,321.3
2021-07-16T09:40:03,42.805,6.029,0.0,-0.002,-0.029,102.0,100.0,101.0,13.3,1505.2,328.3,-0.8,1.9,2470.446,13.29,0.002,180.0
2021-07-16T09:43:03,42.805,6.029,-0.009,0.012,-0.012,102.0,101.0,101.0,13.3,1505.2,328.5,-0.7,1.8,2470.491,13.29,0.015,323.1
2021-07-16T09:46:03,42.805,6.029,-0.021,0.015,-0.037,102.0,101.0,101.0,13.3,1505.2,325.7,-0.8,1.8,2470.496,13.29,0.025,305.5
2021-07-16T09:49:03,42.805,6.029,-0.024,-0.005,-0.028,100.0,103.0,101.0,13.3,1505.2,326.0,-0.8,1.8,2470.509,13.29,0.024,258.2
2021-07-16T09:52:03,42.805,6.029,0.001,-0.001,-0.017,101.0,101.0,101.0,13.4,1505.2,324.9,-0.7,1.8,2470.523,13.29,0.001,135.0
2021-07-16T09:55:03,42.805,6.029,-0.008,0.014,0.02,100.0,102.0,101.0,13.4,1505.2,328.7,-0.8,1.8,2470.516,13.29,0.016,330.3